Location: Burbank
(38.7788°N, 114.0429°W)
Time: 14:51:03
(UTC+00:00)

Injun/Solrad 3 - Pass Details

Date: 21 May 2026
Orbit: 867 x 989 km, 66.8° (Epoch: 8 June)

Event Time Altitude Azimuth Distance (km) Brightness Sun altitude
Rises 06:35:32 0° 333° (NNW) 3,690 12.2 -29.5°
Reaches altitude 10° 06:38:08 10° 336° (NNW) 2,746 11.3 -29.6°
Maximum altitude 06:44:34 68° 60° (ENE) 1,061 8.1 -29.9°
Enters shadow 06:44:50 67° 75° (ENE) 1,066 8.1 -30.0°
Drops below altitude 10° 06:50:57 10° 143° (SE) 2,730 - -30.2°
Sets 06:53:31 0° 145° (SE) 3,666 - -30.3°
